User: anonymous   Login
Location: St. Malo Provincial Park
(49.3214°N, 96.9305°W)
Time: 18:51:28
(UTC-06:00)
Language:

Iridium 6 - Orbit

View from above orbital plane
View from above orbital plane
View from above satellite
View from above satellite

Ground track
Ground track

The orbit data is extracted from the following two-line orbital elements,

1 24794U 97020C   14356.53550339  .00000712  00000-0  24721-3 0  9120
2 24794 086.3965 338.2674 0002348 103.6592 256.4865 14.34216938923103
Epoch (UTC): 22 December 2014 12:51:07
Eccentricity: 0.0002348
inclination: 86.3965°
perigee height: 776 km
apogee height: 779 km
right ascension of ascending node: 338.2674°
argument of perigee: 103.6592°
revolutions per day: 14.34216938
mean anomaly at epoch: 256.4865°
orbit number at epoch: 92310

The dashed part of the orbit path shows where the satellite is in the earth's shadow,  

DLR